Temperature
6 6 6 6 6 6 5 5 5 5 5 5 5 5 5 5 5 5 5 5 5 5 5 4 4 4 4 4 4 4 4 4 4 4 4 4 3 3 3 3 3 4 4
5 5 5 5 5 5 5 5 5 5 5 5 5 5 4 4 4 4 4 4 4 4 4 4 4 4 4 4 4 4 4 3 3 3 3 2 2 2 2 2 3 3 3
4 4 5 5 5 5 5 4 4 4 4 4 4 4 4 4 3 3 3 3 3 3 3 3 3 3 3 3 3 3 3 3 3 3 2 2 1 1 1 2 2 2 2
4 4 4 4 4 4 4 4 4 4 4 4 4 4 4 3 3 3 3 3 3 3 3 3 3 3 3 3 3 2 2 2 2 2 2 2 1 1 0 1 1 1 1
4 4 4 4 4 4 4 3 3 3 3 3 3 3 3 3 3 2 2 2 2 2 2 2 2 2 2 2 2 2 2 2 2 2 1 1 1 1 0 -0 0 1 1
3 3 3 3 3 3 3 3 3 3 2 2 2 2 3 2 2 2 2 2 2 2 2 2 2 2 1 1 1 1 1 1 1 1 1 1 1 0 0 -1 -1 -1 -0
3 3 3 3 3 3 3 2 2 2 2 2 2 2 2 2 2 2 2 2 1 1 1 1 1 1 1 1 1 1 1 0 0 0 0 0 -0 -0 -0 -1 -1 -2 -1
2 2 2 2 2 2 2 2 2 2 2 2 1 1 1 1 1 1 1 1 1 1 1 1 1 1 1 1 0 0 0 -0 -0 -0 -0 -0 -1 -1 -1 -1 -2 -2 -2
2 2 2 2 2 1 1 1 1 1 1 1 1 1 1 0 0 0 0 0 1 0 0 0 0 0 0 0 -0 -0 -1 -1 -1 -1 -1 -1 -1 -1 -2 -2 -2 -2 -3
1 1 1 1 1 1 1 1 1 0 0 0 0 0 0 -0 -0 -0 -0 -0 -0 -0 -0 -0 -0 -0 -0 -1 -1 -1 -1 -1 -1 -1 -1 -1 -2 -2 -2 -2 -2 -3 -3
-0 0 0 0 -0 0 0 -0 -0 -0 -1 -1 -1 -0 -1 -1 -1 -1 -1 -1 -1 -1 -1 -1 -1 -1 -1 -1 -1 -1 -2 -2 -2 -2 -2 -2 -2 -2 -2 -3 -3 -3 -3
-1 -1 -1 -1 -1 -1 -1 -1 -1 -1 -1 -1 -1 -1 -1 -1 -2 -2 -2 -2 -2 -2 -2 -2 -2 -2 -2 -2 -2 -2 -2 -2 -2 -2 -2 -3 -3 -3 -3 -3 -3 -3 -4
-2 -2 -2 -2 -2 -2 -2 -2 -2 -2 -2 -2 -2 -2 -2 -2 -2 -2 -2 -2 -2 -2 -2 -2 -2 -2 -2 -2 -2 -3 -3 -3 -3 -3 -3 -3 -3 -3 -3 -4 -4 -4 -4
-3 -3 -3 -3 -3 -3 -3 -3 -2 -2 -2 -3 -3 -3 -3 -3 -3 -3 -3 -3 -3 -3 -3 -3 -3 -3 -3 -3 -3 -3 -3 -3 -4 -4 -4 -4 -4 -4 -4 -4 -4 -5 -5
-5 -4 -5 -4 -4 -4 -4 -4 -4 -3 -3 -3 -3 -3 -3 -3 -3 -3 -3 -4 -4 -4 -4 -4 -4 -4 -4 -4 -4 -4 -4 -4 -4 -4 -4 -4 -4 -5 -5 -5 -5 -5 -5
-6 -5 -5 -5 -5 -5 -5 -5 -4 -4 -4 -4 -4 -4 -4 -4 -4 -4 -4 -4 -4 -4 -4 -4 -4 -4 -4 -4 -5 -5 -5 -5 -5 -5 -5 -5 -5 -5 -5 -5 -5 -5 -5
-7 -6 -6 -6 -6 -6 -6 -6 -5 -5 -5 -5 -5 -5 -5 -5 -5 -5 -5 -5 -5 -5 -5 -5 -5 -5 -5 -5 -5 -5 -5 -5 -5 -6 -5 -5 -6 -6 -6 -6 -6 -6 -6
-7 -7 -7 -7 -6 -6 -6 -6 -6 -6 -6 -6 -5 -5 -5 -5 -5 -5 -5 -5 -5 -5 -5 -5 -6 -6 -6 -6 -6 -6 -6 -6 -6 -6 -6 -6 -6 -6 -6 -6 -6 -6 -6
-8 -8 -8 -7 -7 -7 -7 -6 -6 -6 -6 -6 -6 -6 -6 -6 -6 -6 -6 -6 -6 -6 -6 -6 -6 -6 -6 -6 -6 -6 -6 -6 -6 -7 -7 -7 -6 -6 -7 -7 -7 -7 -7
-9 -8 -8 -8 -8 -7 -7 -7 -7 -7 -7 -7 -7 -6 -6 -6 -6 -6 -6 -6 -7 -7 -7 -7 -7 -7 -6 -6 -7 -7 -7 -7 -7 -7 -7 -7 -7 -7 -7 -7 -7 -7 -7
-9 -9 -9 -9 -8 -8 -8 -8 -8 -8 -8 -7 -7 -7 -7 -7 -7 -7 -7 -7 -7 -7 -7 -7 -7 -7 -7 -7 -7 -7 -7 -7 -7 -7 -7 -7 -7 -7 -8 -8 -8 -8 -8
-10 -9 -9 -9 -9 -9 -9 -8 -8 -8 -8 -8 -8 -8 -8 -8 -8 -8 -8 -8 -8 -8 -8 -8 -8 -8 -8 -8 -8 -8 -8 -8 -8 -8 -8 -8 -8 -8 -8 -8 -8 -8 -8
-10 -10 -10 -10 -9 -9 -9 -9 -9 -9 -9 -8 -8 -8 -8 -8 -8 -8 -8 -8 -8 -9 -9 -9 -9 -8 -8 -8 -8 -8 -8 -8 -8 -8 -8 -8 -8 -8 -8 -8 -8 -8 -8
-11 -11 -10 -10 -10 -10 -10 -10 -10 -10 -9 -9 -9 -9 -9 -9 -9 -9 -9 -9 -9 -9 -9 -9 -9 -9 -9 -9 -9 -9 -9 -9 -9 -9 -9 -9 -9 -9 -9 -9 -9 -9 -9
-12 -11 -11 -11 -10 -10 -10 -10 -10 -10 -10 -10 -10 -10 -10 -10 -10 -10 -9 -9 -9 -9 -9 -9 -9 -9 -9 -9 -9 -9 -9 -9 -9 -9 -9 -9 -9 -9 -9 -9 -9 -9 -9
-12 -12 -12 -11 -11 -11 -11 -10 -11 -11 -11 -11 -10 -10 -10 -10 -10 -10 -10 -10 -10 -10 -10 -10 -10 -10 -10 -10 -9 -9 -9 -9 -9 -10 -9 -9 -9 -9 -9 -9 -9 -9 -9
Wind_Speed
4 4 5 6 6 6 8 9 9 9 8 6 5 5 4 3 3 4 6 7 7 8 8 5 5 4 3 3 3 2 3 2 2 3 3 3 3 3 4 5 5 7 8
2 4 5 6 7 8 8 9 9 9 9 7 5 4 4 3 3 3 4 6 7 7 7 6 4 4 3 3 3 3 2 1 1 2 2 2 2 3 3 3 3 4 6
6 6 6 6 7 8 9 8 9 9 8 7 5 5 3 3 2 3 3 4 6 6 6 6 5 4 3 3 3 3 3 2 0 1 2 2 1 1 2 2 2 3 3
5 5 6 6 7 8 7 7 8 8 8 8 8 8 6 5 4 4 3 3 5 6 6 7 6 5 3 4 3 2 2 3 2 0 1 1 2 2 1 2 2 2 2
5 6 6 7 6 6 7 6 7 7 7 8 8 8 6 4 3 4 4 4 3 5 6 6 6 5 4 4 3 2 2 2 2 2 1 1 1 1 2 2 3 3 2
3 4 4 4 4 4 5 6 7 6 6 7 8 8 7 6 6 5 5 4 3 3 4 5 5 5 5 5 4 4 3 3 2 2 1 2 2 1 1 2 2 3 3
2 3 3 4 4 4 5 6 7 7 6 7 6 7 8 8 9 8 7 6 4 3 5 4 4 5 5 5 4 3 4 4 3 3 2 2 2 2 2 2 2 3 3
1 3 3 4 4 5 5 6 7 6 7 7 6 6 6 6 6 6 6 6 5 5 4 4 4 4 4 5 4 3 3 3 3 3 3 2 2 2 2 2 2 2 3
1 2 2 3 3 4 5 6 6 6 6 6 6 5 5 5 5 5 4 4 4 3 4 4 3 3 3 4 4 3 3 3 3 3 3 3 2 2 2 2 3 3 4
2 1 1 2 3 4 4 4 5 5 5 5 5 4 5 5 5 5 5 5 4 4 4 4 4 3 3 3 3 3 2 3 3 2 3 3 2 2 2 2 2 3 4
2 2 1 0 1 2 3 3 4 4 3 4 4 4 4 4 4 4 5 5 4 4 5 5 4 4 4 4 4 4 4 4 3 3 3 3 3 3 2 2 3 3 3
3 3 2 2 1 1 2 3 3 4 3 3 3 4 3 4 4 4 4 4 4 4 5 4 5 5 4 4 4 4 4 5 5 4 4 5 4 4 3 3 4 3 3
5 5 4 3 2 1 0 1 2 3 3 3 3 3 3 3 4 4 3 3 4 3 4 4 5 5 4 4 4 5 5 5 5 5 5 5 5 5 4 4 4 4 4
6 5 5 4 3 3 1 1 1 1 2 3 3 3 3 3 3 3 3 3 3 4 4 4 4 4 4 4 5 5 5 5 5 5 6 6 6 6 6 5 5 4 4
7 7 5 5 4 4 4 2 1 0 1 2 3 3 2 2 2 2 3 3 3 3 4 3 3 4 4 5 5 5 5 5 5 5 6 6 7 9 7 6 5 5 5
8 7 6 5 5 5 4 3 3 1 1 2 2 2 2 2 2 2 2 2 3 3 3 4 4 4 4 7 8 7 5 5 5 5 5 6 7 9 10 10 10 9 7
8 7 6 5 5 5 4 3 3 2 0 1 1 1 2 2 2 2 2 3 3 3 3 4 4 5 6 8 8 9 4 5 5 5 5 5 5 7 5 8 9 9 11
7 7 6 6 5 5 4 3 2 2 1 0 1 1 1 2 2 2 2 3 2 3 3 4 4 4 6 8 8 8 4 4 5 5 6 6 5 6 6 5 5 5 6
7 6 6 5 5 5 4 3 2 2 2 1 1 1 2 2 2 3 3 3 2 3 3 3 3 4 5 7 7 6 3 3 4 5 5 5 5 9 9 5 5 5 6
6 6 5 5 5 5 4 3 3 2 3 3 3 2 2 3 3 4 3 3 3 3 3 3 3 4 4 7 7 6 3 4 4 4 5 7 7 9 9 5 5 6 5
7 6 5 5 5 5 4 3 3 3 4 3 3 2 2 3 3 3 3 3 3 2 2 3 3 4 5 6 7 6 3 4 4 4 4 5 9 9 9 7 5 7 6
7 7 6 6 5 5 4 4 4 4 3 3 3 3 3 3 2 2 3 3 3 3 3 3 3 3 4 5 6 6 6 5 4 4 4 4 7 7 7 6 6 7 5
7 6 6 6 6 5 4 4 5 4 4 3 3 3 3 2 2 3 3 3 3 3 3 3 3 3 3 4 6 7 7 6 4 4 5 6 6 6 4 5 6 4 2
7 7 6 7 7 6 5 4 5 4 3 3 3 3 2 2 2 3 3 3 4 4 4 4 4 4 4 4 4 4 4 5 4 3 4 5 5 4 4 4 3 2 2
7 7 6 7 8 7 6 6 5 3 3 3 3 3 3 3 3 3 3 4 5 6 5 5 4 4 5 6 7 4 3 3 3 2 1 1 1 2 2 2 2 2 2
7 7 7 7 7 7 7 6 5 3 3 4 3 3 2 2 2 3 3 5 5 7 8 7 6 6 7 7 7 6 6 6 5 3 3 3 3 3 3 3 2 2 3
Wind_Direction
209 174 172 167 162 162 165 167 164 162 157 157 157 156 160 154 130 127 133 133 136 135 128 121 114 107 109 111 104 111 98 74 82 80 51 23 27 53 58 59 61 49 45
185 174 172 168 171 173 171 171 170 170 170 169 164 159 151 154 149 136 137 141 144 145 144 133 128 121 119 120 117 120 120 110 79 98 97 46 8 12 22 42 60 48 42
194 184 177 180 177 181 182 180 174 171 168 156 143 133 119 114 138 163 165 156 152 152 150 148 144 139 140 154 157 151 135 154 122 83 119 140 196 309 339 8 32 33 35
195 184 178 181 188 190 183 175 171 167 165 157 159 161 169 173 184 180 175 162 155 156 159 160 158 154 156 164 176 161 159 155 165 112 58 120 149 163 299 322 343 350 357
194 190 187 189 190 182 176 172 164 163 165 167 168 170 171 168 155 160 164 171 170 168 168 171 169 167 170 174 176 174 166 165 174 173 146 82 64 139 184 262 301 320 306
200 196 187 174 173 166 168 167 166 167 167 170 173 176 173 166 163 170 176 182 184 186 180 179 179 181 181 182 185 187 180 180 177 177 178 176 182 195 188 230 269 285 292
191 191 183 179 176 172 177 178 175 176 174 173 178 182 182 179 182 183 184 183 187 197 198 195 190 189 189 186 182 186 193 187 184 190 201 203 212 201 198 209 253 278 289
218 209 204 191 184 180 179 182 184 185 181 182 186 186 184 187 191 191 189 191 195 199 197 191 190 191 188 183 177 190 201 191 191 202 202 212 217 203 201 202 213 281 282
258 231 215 190 183 179 182 185 181 183 185 184 180 178 182 186 190 187 184 188 188 188 178 184 187 191 188 182 176 190 197 189 198 205 208 218 221 215 213 204 198 210 262
327 301 222 201 193 186 182 176 178 183 184 181 184 185 184 189 188 180 184 187 189 184 178 193 198 194 191 187 179 187 196 188 208 211 207 220 222 222 217 211 221 219 232
329 321 322 311 176 168 166 173 178 177 180 182 179 178 183 185 182 186 189 189 190 188 189 196 195 194 197 196 188 196 196 200 212 220 217 227 226 226 229 226 230 232 226
358 359 5 18 36 135 172 181 182 184 188 181 169 175 176 176 184 195 193 189 189 196 197 198 197 201 202 203 196 204 208 207 215 221 224 235 239 236 233 230 232 237 233
9 12 18 12 356 331 240 192 188 194 185 169 166 166 166 174 190 196 189 186 186 191 197 199 199 203 204 206 209 206 212 217 221 221 224 231 229 238 236 231 236 241 248
8 9 8 2 356 348 334 302 220 192 173 165 167 176 181 183 185 184 184 186 185 185 194 204 206 209 214 217 219 216 217 219 228 232 230 231 229 233 232 237 234 235 242
359 357 355 354 359 355 351 342 320 210 165 165 175 189 189 183 178 181 182 186 193 198 203 202 210 219 221 222 218 216 218 216 224 232 236 238 239 240 238 240 233 227 232
346 349 352 355 352 344 343 347 332 312 174 177 190 188 178 186 198 202 191 186 194 200 200 208 211 217 231 237 233 227 218 216 220 229 237 243 248 250 253 253 251 243 235
340 342 342 339 335 330 329 329 326 320 243 185 187 183 184 201 212 215 202 201 204 203 211 216 215 221 232 240 238 236 217 207 216 223 231 243 250 257 249 255 258 258 257
335 334 334 334 332 331 331 331 335 345 336 246 228 216 203 217 221 213 218 220 212 210 217 226 229 234 243 244 242 240 215 213 222 228 228 234 241 248 248 248 250 254 259
323 323 325 323 328 332 330 333 338 346 346 316 284 262 232 224 223 229 232 226 220 221 222 228 228 235 251 252 244 237 207 221 229 235 233 233 235 249 254 249 242 257 265
326 326 326 330 335 330 332 335 328 330 316 300 284 267 246 229 229 233 233 230 225 227 238 249 240 240 247 252 242 236 220 227 233 238 240 244 246 252 253 236 227 245 259
326 329 330 331 325 324 326 318 311 304 301 302 300 287 262 246 234 227 228 225 228 229 229 243 252 246 251 254 245 239 225 222 227 237 241 245 253 258 258 252 234 246 253
331 334 333 327 323 323 322 314 309 306 308 307 303 292 274 261 250 221 225 220 213 217 226 233 249 253 255 259 251 244 243 239 228 236 241 246 255 262 266 261 254 260 265
328 329 327 324 323 321 317 305 308 313 314 309 299 291 286 275 260 228 218 217 213 218 228 231 241 253 259 259 258 254 250 248 243 239 245 253 258 265 268 269 270 267 255
327 326 325 324 323 322 318 303 304 310 310 305 299 291 281 276 264 251 230 223 224 224 228 232 237 249 252 249 245 247 252 250 253 250 247 251 257 261 268 270 274 264 239
322 323 321 318 317 319 317 315 308 305 304 300 296 294 283 268 265 260 242 239 231 226 227 228 228 230 239 245 244 239 239 236 235 223 210 225 242 242 251 267 275 260 253
317 319 319 318 316 318 318 317 310 298 291 298 299 290 282 275 274 275 279 265 257 254 252 251 249 249 253 258 251 250 251 249 240 220 212 223 225 232 239 248 260 265 253
Height
1473 1475 1477 1480 1482 1484 1487 1489 1492 1494 1496 1498 1500 1502 1503 1505 1507 1509 1511 1512 1514 1515 1516 1518 1519 1520 1520 1521 1522 1523 1523 1524 1524 1525 1525 1526 1527 1527 1527 1528 1528 1528 1528
1470 1471 1474 1476 1478 1480 1482 1485 1488 1490 1493 1495 1497 1499 1501 1503 1505 1506 1508 1510 1511 1513 1514 1515 1516 1517 1518 1519 1520 1521 1521 1521 1522 1522 1522 1523 1525 1524 1525 1525 1526 1526 1526
1466 1468 1470 1472 1474 1476 1478 1480 1483 1486 1489 1491 1494 1496 1498 1500 1501 1503 1504 1506 1508 1509 1511 1513 1514 1515 1516 1516 1517 1518 1519 1519 1520 1521 1521 1522 1521 1522 1522 1522 1523 1523 1523
1463 1465 1466 1468 1470 1472 1475 1477 1480 1483 1485 1488 1490 1491 1493 1494 1496 1499 1501 1503 1505 1506 1508 1509 1510 1511 1513 1514 1515 1516 1516 1517 1517 1518 1519 1520 1519 1520 1519 1519 1520 1520 1520
1461 1462 1463 1465 1467 1469 1472 1474 1476 1479 1482 1484 1486 1488 1490 1492 1494 1496 1498 1500 1501 1503 1505 1506 1507 1508 1509 1510 1512 1512 1513 1514 1515 1515 1515 1516 1517 1517 1517 1516 1516 1517 1518
1459 1460 1461 1463 1464 1466 1469 1471 1473 1475 1478 1480 1482 1484 1486 1488 1490 1492 1494 1496 1498 1499 1501 1502 1503 1504 1506 1507 1508 1509 1510 1511 1512 1512 1513 1513 1514 1514 1514 1513 1513 1513 1514
1458 1458 1459 1460 1462 1463 1465 1468 1469 1471 1474 1476 1478 1480 1483 1485 1486 1488 1490 1492 1493 1495 1496 1498 1499 1500 1502 1503 1504 1505 1506 1507 1508 1508 1509 1510 1511 1511 1511 1511 1510 1509 1509
1457 1458 1458 1459 1460 1461 1462 1464 1466 1468 1470 1472 1474 1476 1479 1481 1482 1484 1486 1488 1489 1491 1492 1493 1495 1496 1498 1499 1500 1501 1502 1503 1504 1505 1506 1507 1507 1508 1508 1508 1508 1506 1506
1457 1457 1457 1457 1458 1458 1459 1461 1463 1464 1466 1468 1470 1472 1474 1476 1478 1480 1482 1484 1485 1487 1488 1489 1491 1492 1493 1495 1496 1497 1498 1499 1500 1501 1502 1502 1503 1504 1504 1504 1505 1505 1502
1456 1456 1456 1456 1456 1456 1457 1459 1460 1461 1463 1464 1466 1468 1470 1472 1474 1476 1477 1479 1481 1482 1484 1485 1486 1487 1489 1490 1491 1492 1493 1494 1495 1496 1497 1498 1498 1499 1499 1500 1500 1500 1500
1456 1455 1455 1455 1454 1455 1455 1456 1457 1458 1459 1461 1462 1464 1466 1468 1470 1471 1473 1475 1477 1478 1479 1480 1481 1483 1484 1485 1486 1488 1489 1489 1491 1492 1492 1493 1494 1494 1494 1495 1495 1495 1495
1456 1455 1454 1454 1453 1453 1453 1453 1454 1455 1456 1457 1458 1460 1462 1463 1465 1467 1469 1470 1472 1474 1475 1476 1477 1478 1479 1480 1482 1483 1484 1485 1486 1486 1487 1488 1488 1489 1490 1490 1490 1490 1490
1456 1455 1453 1453 1452 1451 1451 1451 1451 1452 1453 1454 1455 1456 1457 1459 1461 1463 1464 1466 1468 1469 1470 1471 1472 1473 1474 1475 1477 1478 1479 1480 1481 1481 1482 1482 1483 1483 1484 1484 1485 1485 1485
1456 1454 1453 1452 1451 1450 1450 1449 1449 1449 1450 1450 1451 1452 1453 1455 1456 1458 1460 1462 1463 1464 1466 1467 1468 1469 1469 1471 1472 1473 1474 1475 1475 1476 1477 1477 1478 1478 1479 1479 1479 1479 1479
1456 1454 1452 1451 1450 1449 1448 1447 1447 1447 1447 1447 1448 1448 1450 1451 1452 1454 1455 1457 1459 1460 1461 1462 1463 1464 1465 1466 1467 1468 1469 1470 1470 1471 1472 1472 1472 1473 1473 1474 1474 1474 1474
1457 1455 1453 1451 1449 1448 1446 1446 1445 1445 1445 1444 1445 1445 1446 1447 1449 1450 1451 1453 1454 1455 1456 1457 1458 1459 1460 1461 1462 1464 1464 1465 1465 1466 1466 1467 1467 1467 1468 1468 1469 1470 1469
1457 1455 1452 1450 1448 1447 1445 1444 1444 1443 1442 1442 1442 1442 1443 1444 1445 1446 1447 1448 1449 1450 1451 1452 1453 1454 1455 1456 1458 1459 1460 1460 1460 1461 1461 1461 1462 1462 1462 1462 1463 1463 1463
1457 1454 1451 1449 1447 1446 1444 1443 1442 1441 1440 1439 1439 1440 1440 1441 1442 1442 1443 1444 1445 1446 1447 1447 1448 1449 1450 1452 1453 1454 1455 1455 1455 1456 1456 1456 1456 1457 1457 1457 1457 1457 1457
1456 1453 1450 1448 1446 1444 1443 1441 1440 1439 1438 1437 1437 1437 1437 1437 1438 1439 1439 1440 1441 1442 1442 1443 1444 1445 1446 1447 1448 1449 1450 1450 1450 1451 1451 1451 1451 1452 1453 1453 1452 1452 1452
1454 1451 1448 1446 1444 1442 1441 1439 1438 1436 1435 1435 1435 1435 1435 1434 1435 1435 1436 1436 1437 1438 1439 1439 1440 1441 1441 1443 1444 1445 1445 1445 1446 1446 1446 1447 1447 1447 1448 1448 1447 1447 1447
1453 1450 1447 1444 1442 1441 1439 1437 1436 1434 1434 1433 1432 1432 1431 1431 1431 1432 1432 1433 1433 1434 1435 1435 1436 1437 1437 1438 1439 1440 1440 1441 1441 1441 1441 1442 1442 1443 1443 1443 1443 1442 1443
1450 1448 1445 1442 1441 1439 1437 1435 1433 1432 1431 1430 1429 1428 1428 1428 1428 1428 1429 1429 1430 1430 1431 1431 1432 1432 1433 1434 1434 1435 1436 1437 1437 1437 1437 1437 1438 1438 1438 1438 1438 1438 1438
1448 1446 1443 1440 1439 1437 1435 1432 1430 1429 1427 1426 1425 1425 1425 1425 1425 1425 1425 1425 1426 1426 1427 1427 1427 1428 1429 1429 1430 1431 1432 1432 1432 1432 1433 1433 1433 1433 1433 1433 1433 1433 1433
1446 1443 1441 1438 1436 1434 1432 1430 1428 1426 1425 1423 1423 1422 1421 1421 1421 1421 1421 1421 1422 1422 1422 1423 1423 1424 1424 1425 1426 1427 1427 1428 1428 1428 1428 1428 1428 1428 1428 1428 1428 1428 1428
1444 1441 1439 1436 1433 1432 1430 1427 1426 1424 1422 1421 1420 1419 1418 1418 1418 1418 1418 1418 1418 1419 1419 1419 1419 1420 1420 1421 1422 1423 1423 1423 1424 1424 1423 1423 1423 1423 1423 1423 1423 1424 1424
1441 1438 1436 1433 1431 1429 1426 1425 1423 1421 1419 1418 1417 1416 1415 1415 1414 1414 1414 1414 1415 1415 1416 1416 1416 1416 1417 1417 1418 1418 1419 1419 1419 1419 1418 1418 1418 1418 1418 1419 1419 1419 1419